Location: Bronnegerveen
(52.9548°N, 6.8388°E)
Time: 02:31:17
(UTC+00:00)

ALOS - Pass Details

Date: 15 June 2025
Orbit: 664 x 666 km, 98.1° (Epoch: 07 July)

Event Time Altitude Azimuth Distance (km) Brightness Sun altitude
Rises 01:58:17 0° 18° (NNE) 3,017 7.4 -7.5°
Reaches altitude 10° 02:00:36 10° 25° (NNE) 2,099 6.5 -7.3°
Maximum altitude 02:05:01 47° 99° (E) 888 3.1 -6.9°
Drops below altitude 10° 02:09:24 10° 173° (S) 2,083 4.3 -6.5°
Enters shadow 02:11:20 - 179° (S) 2,844 5.0 -6.4°
